STARLINK-35158

Satellite information

Favourite Embed

Satellite Type and Status

PAYLOADIN ORBIT

Key statistics

Satellite STARLINK-35158 at a glance.

Uptime

29

Days in orbit

Revolutions

≈ 15.4

Per day

Orbit

LEO

Low Earth Orbit

Inclination

53.2

Latest

Satellite identification and parameters

Extended collection of information and parameters for STARLINK-35158.

Object identification

Identified? True

Debris? False

Object name: STARLINK-35158

International designator: 2025-257B

Object number (NORAD): 66381

Object ID (CCSDS): 66381

Country: UNITED STATES OF AMERICA (US)

Current information (Y/N): Y

Orbital parameters

Period: 93.53 minutes

Inclination: 53.16 deg

SMA: 6825.393 km

Apoapsis: 448.013 km

Periapsis: 446.503 km

RAAN: 295.6823 deg

Eccentricy: 0.00011063

Argument of periapsis: 95.9912 deg

Mean anomaly: 264.1218 deg

Mean motion: 15.39611903 rev/day

Mean motion (dot): 0.00082754 rev/day2

B* drag term: 0.002056989 1/REarth

Two-line elements (TLE)

Creation date: Dec. 6, 2025, 12:48 p.m.

Reference frame: TEME

Reference center: EARTH

Epoch: Dec. 6, 2025, 3:41 a.m. UTC

TLE line 0: 0 STARLINK-35158

TLE line 1: 1 66381U 25257B 25340.15389817 .00082754 00000-0 20570-2 0 9993

TLE line 2: 2 66381 53.1600 295.6823 0001106 95.9912 264.1218 15.39611903 5354

Live tracking on map

Real-time ground track for satellite STARLINK-35158.

In-orbit conjunctions

There are no conjunctions computed for STARLINK-35158, at the moment. Check back to stay up to date, as we update our databases every day.

Go to all conjunctions

Associated space launch

3 Chinese satellites reported to be for "orbital technological testing" purposes. Actual usage not known.

STARLINK-35158 was lifted into orbit during the mission ‘Long March 11 | Shiyan 32 01-03’, on board a Long March 11 space rocket.

The launch took place on Nov. 8, 2025, 9:01 p.m. from Oriental Spaceport mobile launch ship.

For more information about the launch, click the button.

Launch to space Long March 11 | Shiyan 32 01-03
Long March 11 | Shiyan 32 01-03

Agency: N/A

Status: Launch Successful

Launch date: Nov. 8, 2025, 9:01 p.m. UTC

Rocket: Long March 11

Launch pad: Oriental Spaceport mobile launch ship

Location: Sea Launch

...

Latest news about this satellite

News about space launch
China breaks annual launch record with VLEO Chutian and Shiyan technology test launches

China conducted a pair of solid rocket launches late Saturday, seeing the country surpass its previous record for orbital launch attempts in a calendar year. The post China breaks annual launch record with VLEO Chutian and Shiyan technology test launches...


Newsletter sign-up

Weekly statistics, charts and insights to help you stay on top of the space industry.